Georgetown, TX

11:54 AM CDT on April 30, 2017 (GMT -0500)
Georgetown Municipal

Weather History for KGTU - October, 2012

Change the Weather History Date:

Monday, October 15, 2012

  Actual Average Record
Temperature  
Mean Temperature 70 °F -  
Max Temperature 78 °F 76 °F 93 °F (2015)
Min Temperature 55 °F 57 °F 41 °F (2010)
Cooling Degree Days 4    
Growing Degree Days 20 (Base 50)    
Moisture  
Dew Point 52 °F    
Average Humidity 68    
Maximum Humidity 88    
Minimum Humidity 27    
Precipitation  
Precipitation 0.00 in - - ()
Sea Level Pressure  
Sea Level Pressure 30.06 in    
Wind  
Wind Speed 3 mph (NNW)    
Max Wind Speed 8 mph    
Max Gust Speed -    
Visibility 10 miles    
Events      
Averages and records for this station are not official NWS values.
T = Trace of Precipitation, MM = Missing Value Source: NWS Daily Summary

Daily Weather History Graph

Daily Weather History Graph

Search for Another Location

Airport or City:

Trip Planner

Search our weather history database for the weather conditions in past years. The results will help you decide how hot, cold, wet, or windy it might be!

Date:

Astronomy

Oct. 15, 2012 Rise Set
Actual Time 7:33 AM CDT 6:58 PM CDT
Civil Twilight 7:09 AM CDT 7:23 PM CDT
Nautical Twilight 6:41 AM CDT 7:51 PM CDT
Astronomical Twilight 6:13 AM CDT 8:18 PM CDT
Moon 7:41 AM CDT (10/15) 7:05 PM CDT (10/15)
Length of Visible Light 12h 13m
Length of Day
11h 25m
New Moon, 0% of the Moon is Illuminated
Oct 15
New Moon
Oct 21
First Quarter
Oct 29
Full
Nov 6
Last Quarter
Nov 13
New

Hourly Weather History & Observations

Time (CDT) Temp. Dew Point Humidity Pressure Visibility Wind Dir Wind Speed Gust Speed Precip Events Conditions
12:15 AM 64.4 °F 53.6 °F 68% 30.09 in 10.0 mi NNW 8.1 mph - N/A   Clear
12:35 AM 64.4 °F 53.6 °F 68% 30.09 in 10.0 mi NNW 6.9 mph - N/A   Clear
12:55 AM 64.4 °F 53.6 °F 68% 30.10 in 10.0 mi NNW 5.8 mph - N/A   Clear
1:15 AM 64.4 °F 53.6 °F 68% 30.10 in 10.0 mi NNW 4.6 mph - N/A   Clear
1:35 AM 62.6 °F 53.6 °F 72% 30.09 in 10.0 mi Calm Calm - N/A   Clear
1:55 AM 62.6 °F 53.6 °F 72% 30.09 in 10.0 mi Calm Calm - N/A   Clear
2:15 AM 62.6 °F 51.8 °F 68% 30.09 in 10.0 mi NNW 4.6 mph - N/A   Clear
2:35 AM 62.6 °F 51.8 °F 68% 30.09 in 10.0 mi NNW 5.8 mph - N/A   Clear
2:55 AM 62.6 °F 51.8 °F 68% 30.09 in 10.0 mi NW 3.5 mph - N/A   Clear
3:15 AM 62.6 °F 51.8 °F 68% 30.09 in 10.0 mi NW 3.5 mph - N/A   Clear
3:35 AM 60.8 °F 51.8 °F 72% 30.09 in 10.0 mi NNW 3.5 mph - N/A   Clear
3:55 AM 60.8 °F 51.8 °F 72% 30.09 in 10.0 mi Calm Calm - N/A   Clear
4:15 AM 60.8 °F 53.6 °F 77% 30.09 in 10.0 mi Calm Calm - N/A   Clear
4:55 AM 55.4 °F 51.8 °F 88% 30.09 in 10.0 mi Calm Calm - N/A   Clear
5:15 AM 55.4 °F 51.8 °F 88% 30.09 in 10.0 mi Calm Calm - N/A   Clear
5:55 AM 57.2 °F 50.0 °F 77% 30.09 in 10.0 mi NW 5.8 mph - N/A   Clear
6:15 AM 57.2 °F 50.0 °F 77% 30.09 in 10.0 mi NNW 3.5 mph - N/A   Clear
6:35 AM 55.4 °F 51.8 °F 88% 30.09 in 10.0 mi Calm Calm - N/A   Clear
6:48 AM 57.2 °F 50.0 °F 77% 30.09 in 10.0 mi NNW 6.9 mph - N/A   Clear
7:46 AM 55.4 °F 51.8 °F 88% 30.10 in 10.0 mi Calm Calm - N/A   Clear
8:49 AM 60.8 °F 53.6 °F 77% 30.12 in 10.0 mi Calm Calm - N/A   Clear
9:47 AM 66.2 °F 53.6 °F 64% 30.13 in 10.0 mi NNW 3.5 mph - N/A   Clear
10:49 AM 69.8 °F 55.4 °F 60% 30.13 in 10.0 mi NNW 3.5 mph - N/A   Clear
11:48 AM 73.4 °F 53.6 °F 50% 30.11 in 10.0 mi Calm Calm - N/A   Clear
12:50 PM 75.2 °F 50.0 °F 41% 30.09 in 10.0 mi East 3.5 mph - N/A   Clear
1:48 PM 78.8 °F 48.2 °F 34% 30.05 in 10.0 mi Calm Calm - N/A   Clear
2:48 PM 78.8 °F 48.2 °F 34% 30.02 in 10.0 mi Calm Calm - N/A   Clear
3:48 PM 84.2 °F 46.4 °F 27% 30.00 in 10.0 mi SE 3.5 mph - N/A   Clear
4:50 PM 77.0 °F 44.6 °F 32% 29.99 in 10.0 mi SE 3.5 mph - N/A   Clear
5:47 PM 75.2 °F 48.2 °F 38% 29.99 in 10.0 mi Calm Calm - N/A   Clear
6:48 PM 73.4 °F 50.0 °F 44% 29.99 in 10.0 mi Calm Calm - N/A   Clear
7:48 PM 66.2 °F 55.4 °F 68% 30.01 in 10.0 mi Calm Calm - N/A   Clear
8:48 PM 62.6 °F 55.4 °F 77% 30.01 in 10.0 mi Calm Calm - N/A   Clear
9:48 PM 60.8 °F 55.4 °F 82% 30.02 in 10.0 mi Calm Calm - N/A   Clear
10:15 PM 60.8 °F 55.4 °F 82% 30.02 in 10.0 mi Calm Calm - N/A   Clear
10:35 PM 60.8 °F 55.4 °F 82% 30.01 in 10.0 mi Calm Calm - N/A   Clear
10:55 PM 60.8 °F 55.4 °F 82% 30.02 in 10.0 mi Calm Calm - N/A   Clear
11:15 PM 60.8 °F 55.4 °F 82% 30.02 in 10.0 mi Calm Calm - N/A   Clear
11:35 PM 60.8 °F 55.4 °F 82% 30.01 in 10.0 mi Calm Calm - N/A   Clear
11:55 PM 60.8 °F 55.4 °F 82% 30.00 in 10.0 mi Calm Calm - N/A   Clear